Home > Weather > Durham > Past weeks

Flag for USA Weather for the Past 2 Weeks in Durham, North Carolina, USA

Now
55 °F

Partly sunny.


Feels Like: 52 °F
Forecast: 50 / 65 °F
Wind: 9 mph from Northwest

Location: Raleigh-Durham International Airport

Current Time: May 6, 2016 at 10:59:29 AM

Latest Report: May 6, 2016 at 9:51 AM


Visibility: 10 mi

Pressure: 29.72 "Hg

Humidity: 80%

Dew Point: 49 °F

Location of DurhamLocation

Historic Weather in Durham — Graph

°F

Durham Temperature Yesterday

Maximum temperature yesterday: 60 °F (at 9:51 AM)
Minimum temperature yesterday: 49 °F (at 8:51 PM)
Average temperature yesterday: 53 °F

High & Low Weather Summary for the Past Weeks

 TemperatureHumidityPressure
High86 °F (Apr 27, 4:51 PM)100% (Apr 30, 6:55 AM)30.20 "Hg (Apr 30, 6:55 AM)
Low49 °F (May 5, 8:51 PM)34% (Apr 24, 4:51 PM)29.53 "Hg (May 5, 4:51 AM)
Average66 °F77%29.91 "Hg
* Reported Apr 21 9:51 AM — May 6 9:51 AM, Durham, Weather by CustomWeather, © 2016

Note: Actual official high and low records may vary slightly from our data, if they occured in-between our weather recording intervals... More about our weather records

Advertising

Durham Weather History for the Previous 24 Hours

Scroll right to see more
 ConditionsComfort  
Time TempWeatherWind HumidityBarometerVisibility
9:51 AM
Fri, May 6
55 °FPartly sunny.9 mph80%29.72 "Hg10 mi
8:53 AM52 °FLight rain. Fog.5 mph100%29.72 "Hg6 mi
7:51 AM51 °FMostly cloudy.5 mph92%29.70 "Hg10 mi
6:51 AM50 °FLight rain. Overcast.5 mph96%29.69 "Hg7 mi
5:51 AM50 °FLight rain. Mostly cloudy.5 mph96%29.67 "Hg9 mi
4:51 AM50 °FLight rain. Mostly cloudy.5 mph96%29.67 "Hg9 mi
3:51 AM50 °FLight rain. Overcast.No wind96%29.66 "Hg8 mi
2:51 AM50 °FLight rain. Fog.3 mph96%29.66 "Hg5 mi
1:51 AM50 °FLight rain. Fog.No wind96%29.67 "Hg5 mi
12:51 AM49 °FLight rain. Fog.No wind97%29.67 "Hg3 mi
11:51 PM
Thu, May 5
49 °FLight rain. Fog.No wind97%29.67 "Hg4 mi
10:51 PM49 °FLight rain. Mostly cloudy.5 mph93%29.67 "Hg7 mi
9:51 PM49 °FLight rain. Fog.5 mph93%29.67 "Hg6 mi
8:51 PM49 °FLight rain. Fog.5 mph93%29.66 "Hg6 mi
7:51 PM50 °FDrizzle. Mostly cloudy.3 mph89%29.65 "Hg7 mi
6:51 PM51 °FPartly sunny.6 mph89%29.62 "Hg10 mi
5:51 PM54 °FPartly sunny.12 mph83%29.61 "Hg10 mi
4:51 PM55 °FPartly sunny.9 mph87%29.59 "Hg10 mi
3:51 PM52 °FLight rain. More clouds than sun.8 mph93%29.59 "Hg7 mi
3:03 PM52 °FLight rain. Fog.7 mph94%29.61 "Hg5 mi
1:51 PM53 °FLight rain. Mostly cloudy.8 mph93%29.59 "Hg2 mi
12:51 PM53 °FThunderstorms. Fog.10 mph93%29.58 "Hg2 mi
11:51 AM56 °FThunderstorms. Cloudy.10 mph81%29.57 "Hg10 mi
10:51 AM58 °FThunderstorms. Broken clouds.9 mph84%29.56 "Hg10 mi
Weather by CustomWeather, © 2016

See weather overviewHow to use our weather pages